Location: Trout Lake
(45.9980°N, 121.5270°W)
Time: 19:59:02
(UTC-08:00)

Cosmos 1833 Rocket - Pass Details

Date: 06 December 2023
Orbit: 831 x 840 km, 71.0° (Epoch: 22 February)

Event Time Altitude Azimuth Distance (km) Brightness Sun altitude
Rises 19:24:08 0° 334° (NNW) 3,400 6.1 -30.9°
Reaches altitude 10° 19:26:36 10° 337° (NNW) 2,463 5.3 -31.3°
Enters shadow 19:29:02 27° 342° (NNW) 1,584 4.2 -31.7°
